W8MRL Weather Reports


Display with metric or nautical units.
time (UTC)temp
F
wind
direction
speed
MPH
gust
MPH
rain 1hr
in
rain 24hr
in
rain mn
in
humidity
%
barometer
mb
20260505023042 62 204 0.0 1.0 0.00 0.01 0.01 77 1009.2
20260505021537 61 202 0.0 0.0 0.00 0.01 0.01 79 1008.8
20260505020036 62 202 0.0 0.0 0.00 0.01 0.01 78 1008.6
20260505014558 64 202 0.0 0.0 0.00 0.01 0.01 73 1008.4
20260505013036 67 202 0.0 1.0 0.00 0.01 0.01 68 1008.3
20260505011545 68 205 1.0 3.0 0.00 0.01 0.01 64 1008.2
20260505010035 69 162 1.0 3.0 0.00 0.01 0.01 63 1008.1
20260505004534 70 193 1.0 5.0 0.00 0.01 0.01 61 1008.2
20260505003033 71 195 2.0 9.0 0.00 0.01 0.01 59 1008.2
20260505001532 72 221 2.0 9.0 0.00 0.01 0.01 57 1008.3
20260505000031 73 195 3.0 16.0 0.00 0.01 0.01 55 1008.4
20260504234528 74 170 3.0 15.0 0.00 0.01 0.01 54 1008.5
20260504233028 74 213 3.0 6.0 0.00 0.01 0.01 58 1008.7
20260504231527 75 205 6.0 13.0 0.00 0.01 0.01 55 1008.7
20260504230126 75 203 2.0 7.0 0.00 0.01 0.01 57 1008.8
20260504224530 75 205 1.0 5.0 0.00 0.01 0.01 56 1009.1
20260504223022 74 250 1.0 8.0 0.00 0.01 0.01 57 1009.3
20260504221523 74 175 2.0 11.0 0.00 0.01 0.01 55 1009.6
20260504220017 74 149 1.0 8.0 0.00 0.01 0.01 56 1009.3
20260504214515 74 221 3.0 6.0 0.00 0.01 0.01 57 1009.5
20260504213019 72 241 2.0 9.0 0.00 0.01 0.01 60 1010.1
20260504211516 72 225 3.0 13.0 0.00 0.01 0.01 59 1010.3
20260504210008 73 217 4.0 10.0 0.00 0.01 0.01 59 1010.6
20260504204513 72 223 5.0 12.0 0.00 0.01 0.01 61 1010.6
20260504203006 71 175 6.0 11.0 0.00 0.01 0.01 62 1010.9
20260504201504 70 198 2.0 7.0 0.00 0.01 0.01 68 1011.3
20260504200004 69 188 3.0 11.0 0.00 0.01 0.01 70 1011.3
20260504194503 67 240 3.0 8.0 0.01 0.01 0.01 73 1011.3
20260504193003 66 201 2.0 9.0 0.01 0.01 0.01 74 1011.6
20260504191502 66 255 2.0 9.0 0.01 0.01 0.01 73 1011.4
20260504184501 68 199 3.0 11.0 0.00 0.00 0.00 67 1012.3
20260504183104 69 192 6.0 14.0 0.00 0.00 0.00 65 1012.3
20260504181605 70 203 6.0 17.0 0.00 0.00 0.00 63 1012.0
20260504180116 72 193 6.0 12.0 0.00 0.00 0.00 62 1011.8
20260504174555 71 267 3.0 12.0 0.00 0.00 0.00 65 1011.5
20260504173106 71 155 3.0 9.0 0.00 0.00 0.00 64 1011.3
20260504171551 69 222 3.0 9.0 0.00 0.00 0.00 66 1011.7
20260504081544 47 170 0.0 1.0 0.00 0.00 0.00 82 1014.2
20260504050020 49 193 0.0 0.0 0.00 0.00 0.00 78 1016.0
20260504044520 50 193 0.0 0.0 0.00 0.00 0.00 76 1016.2
20260504043014 52 193 0.0 1.0 0.00 0.00 0.00 72 1016.2
20260504041530 53 193 0.0 2.0 0.00 0.00 0.00 67 1016.3
20260504040005 53 193 1.0 2.0 0.00 0.00 0.00 65 1016.4
20260504034504 54 163 0.0 1.0 0.00 0.00 0.00 64 1016.5
20260504033005 54 180 0.0 2.0 0.00 0.00 0.00 63 1016.5
20260504031504 55 186 1.0 2.0 0.00 0.00 0.00 62 1016.6
20260504030004 55 197 1.0 5.0 0.00 0.00 0.00 62 1016.8
20260504024503 55 209 0.0 1.0 0.00 0.00 0.00 61 1016.9